N6OIM Weather Reports


Display with metric or nautical units.
time (UTC)temp
F
wind
direction
speed
MPH
gust
MPH
rain 1hr
in
rain 24hr
in
rain mn
in
humidity
%
barometer
mb
20260510214325 85 241 0.0 0.0 0.00 0.00 0.00 45 1011.1
20260510213819 85 182 0.0 0.0 0.00 0.00 0.00 46 1011.1
20260510213327 84 184 0.0 0.0 0.00 0.00 0.00 45 1011.3
20260510212835 84 183 0.0 0.0 0.00 0.00 0.00 46 1011.3
20260510212322 84 182 0.0 0.0 0.00 0.00 0.00 46 1011.3
20260510211829 83 180 0.0 0.0 0.00 0.00 0.00 46 1011.4
20260510211317 83 181 0.0 0.0 0.00 0.00 0.00 45 1011.6
20260510210825 83 198 0.0 0.0 0.00 0.00 0.00 45 1011.6
20260510210334 83 250 0.0 0.0 0.00 0.00 0.00 46 1011.6
20260510205824 82 168 0.0 0.0 0.00 0.00 0.00 47 1011.5
20260510205317 82 168 0.0 0.0 0.00 0.00 0.00 49 1011.5
20260510204826 82 168 0.0 0.0 0.00 0.00 0.00 47 1011.6
20260510204335 81 164 0.0 0.0 0.00 0.00 0.00 49 1011.7
20260510203824 81 164 0.0 0.0 0.00 0.00 0.00 49 1011.8
20260510203333 80 160 0.0 0.0 0.00 0.00 0.00 49 1011.7
20260510202822 80 190 0.0 0.0 0.00 0.00 0.00 49 1011.8
20260510202334 80 191 0.0 0.0 0.00 0.00 0.00 52 1011.8
20260510201823 79 173 0.0 0.0 0.00 0.00 0.00 51 1011.9
20260510201318 79 179 0.0 0.0 0.00 0.00 0.00 51 1011.9
20260510200826 79 254 0.0 0.0 0.00 0.00 0.00 53 1011.9
20260510200335 78 252 0.0 0.0 0.00 0.00 0.00 53 1012.0
20260510195824 78 245 0.0 0.0 0.00 0.00 0.00 52 1012.0
20260510195335 78 155 0.0 0.0 0.00 0.00 0.00 51 1012.1
20260510194824 78 138 0.0 0.0 0.00 0.00 0.00 52 1012.1
20260510194314 78 200 0.0 0.0 0.00 0.00 0.00 52 1012.2
20260510193826 77 123 0.0 0.0 0.00 0.00 0.00 53 1012.3
20260510193334 77 141 0.0 0.0 0.00 0.00 0.00 52 1012.3
20260510192826 77 188 0.0 0.0 0.00 0.00 0.00 53 1012.3
20260510192335 77 210 0.0 0.0 0.00 0.00 0.00 54 1012.3
20260510191822 76 207 0.0 0.0 0.00 0.00 0.00 55 1012.3
20260510191332 76 153 0.0 0.0 0.00 0.00 0.00 56 1012.3
20260510190821 76 240 0.0 0.0 0.00 0.00 0.00 56 1012.4
20260510190329 75 209 0.0 0.0 0.00 0.00 0.00 57 1012.5
20260510185821 75 244 0.0 0.0 0.00 0.00 0.00 57 1012.5
20260510185331 75 246 0.0 0.0 0.00 0.00 0.00 57 1012.5
20260510184821 75 233 0.0 0.0 0.00 0.00 0.00 57 1012.7
20260510184314 74 229 0.0 0.0 0.00 0.00 0.00 59 1012.6
20260510183827 74 181 0.0 0.0 0.00 0.00 0.00 59 1012.7
20260510183319 74 186 0.0 0.0 0.00 0.00 0.00 57 1012.7
20260510182827 74 205 0.0 0.0 0.00 0.00 0.00 60 1012.7
20260510182315 73 214 0.0 0.0 0.00 0.00 0.00 60 1012.8
20260510181827 73 256 0.0 0.0 0.00 0.00 0.00 60 1012.8
20260510181334 73 207 0.0 0.0 0.00 0.00 0.00 60 1012.6
20260510180823 72 203 0.0 0.0 0.00 0.00 0.00 63 1012.6
20260510180332 72 134 0.0 0.0 0.00 0.00 0.00 63 1012.6
20260510175825 71 140 0.0 0.0 0.00 0.00 0.00 62 1012.6
20260510175332 71 111 0.0 0.0 0.00 0.00 0.00 63 1012.6
20260510174819 71 216 0.0 0.0 0.00 0.00 0.00 62 1012.5
20260510174327 71 182 0.0 0.0 0.00 0.00 0.00 63 1012.5
20260510173817 70 227 0.0 0.0 0.00 0.00 0.00 63 1012.6
20260510173326 70 181 0.0 0.0 0.00 0.00 0.00 64 1012.6
20260510172816 70 171 0.0 0.0 0.00 0.00 0.00 64 1012.6
20260510172325 69 174 0.0 0.0 0.00 0.00 0.00 66 1012.6
20260510171818 69 169 0.0 0.0 0.00 0.00 0.00 66 1012.5
20260510171326 69 169 0.0 0.0 0.00 0.00 0.00 66 1012.5
20260510170835 68 159 0.0 0.0 0.00 0.00 0.00 66 1012.5
20260510170324 68 144 0.0 0.0 0.00 0.00 0.00 66 1012.5
20260510165834 68 126 0.0 0.0 0.00 0.00 0.00 67 1012.5
20260510165322 67 146 0.0 0.0 0.00 0.00 0.00 68 1012.5
20260510164831 67 150 0.0 0.0 0.00 0.00 0.00 68 1012.5
20260510164320 67 167 0.0 0.0 0.00 0.00 0.00 69 1012.5
20260510163830 66 156 0.0 0.0 0.00 0.00 0.00 69 1012.5
20260510163323 66 245 0.0 0.0 0.00 0.00 0.00 70 1012.5
20260510162831 66 113 0.0 0.0 0.00 0.00 0.00 70 1012.5
20260510162322 65 117 0.0 0.0 0.00 0.00 0.00 70 1012.5
20260510161832 65 144 0.0 0.0 0.00 0.00 0.00 71 1012.4
20260510161319 65 132 0.0 0.0 0.00 0.00 0.00 71 1012.4
20260510160827 64 122 0.0 0.0 0.00 0.00 0.00 72 1012.3
20260510160318 64 115 0.0 0.0 0.00 0.00 0.00 73 1012.3
20260510155827 63 185 0.0 0.0 0.00 0.00 0.00 74 1012.4
20260510155335 63 121 0.0 0.0 0.00 0.00 0.00 74 1012.4
20260510154828 63 219 0.0 0.0 0.00 0.00 0.00 74 1012.4
20260510154317 63 115 0.0 0.0 0.00 0.00 0.00 74 1012.3
20260510153826 62 112 0.0 0.0 0.00 0.00 0.00 74 1012.3
20260510153333 62 198 0.0 0.0 0.00 0.00 0.00 75 1012.4
20260510152823 62 208 0.0 0.0 0.00 0.00 0.00 75 1012.5
20260510152331 61 159 0.0 0.0 0.00 0.00 0.00 76 1012.5
20260510151820 61 134 0.0 0.0 0.00 0.00 0.00 77 1012.5
20260510151328 61 146 0.0 0.0 0.00 0.00 0.00 77 1012.5
20260510150817 60 153 0.0 0.0 0.00 0.00 0.00 77 1012.4
20260510150333 60 207 0.0 0.0 0.00 0.00 0.00 78 1012.3
20260510145822 60 144 0.0 0.0 0.00 0.00 0.00 79 1012.3
20260510145330 60 146 0.0 0.0 0.00 0.00 0.00 80 1012.3
20260510144822 59 145 0.0 0.0 0.00 0.00 0.00 81 1012.3
20260510144329 59 151 0.0 0.0 0.00 0.00 0.00 82 1012.3
20260510143819 58 138 0.0 0.0 0.00 0.00 0.00 82 1012.3
20260510143327 58 167 0.0 0.0 0.00 0.00 0.00 83 1012.3
20260510142836 58 120 0.0 0.0 0.00 0.00 0.00 84 1012.2
20260510142325 57 161 0.0 0.0 0.00 0.00 0.00 84 1012.1
20260510141819 57 172 0.0 0.0 0.00 0.00 0.00 84 1012.1
20260510141326 57 143 0.0 0.0 0.00 0.00 0.00 84 1012.0
20260510140834 57 144 0.0 0.0 0.00 0.00 0.00 84 1012.0
20260510140322 56 145 0.0 0.0 0.00 0.00 0.00 84 1012.0
20260510135834 56 152 0.0 0.0 0.00 0.00 0.00 84 1011.9
20260510135321 56 117 0.0 0.0 0.00 0.00 0.00 84 1011.8
20260510134830 56 115 0.0 0.0 0.00 0.00 0.00 84 1011.9
20260510134322 56 117 0.0 0.0 0.00 0.00 0.00 84 1011.9
20260510133830 56 120 0.0 0.0 0.00 0.00 0.00 83 1011.8
20260510133322 56 119 0.0 0.0 0.00 0.00 0.00 83 1011.8
20260510132831 56 115 0.0 0.0 0.00 0.00 0.00 83 1011.8
20260510132319 56 117 0.0 0.0 0.00 0.00 0.00 83 1011.7
20260510131829 56 117 0.0 0.0 0.00 0.00 0.00 83 1011.6
20260510130828 57 140 0.0 0.0 0.00 0.00 0.00 83 1011.4
20260510130336 57 142 0.0 0.0 0.00 0.00 0.00 82 1011.5
20260510125824 57 153 0.0 0.0 0.00 0.00 0.00 82 1011.3
20260510125332 57 156 0.0 0.0 0.00 0.00 0.00 82 1011.3
20260510124825 57 156 0.0 0.0 0.00 0.00 0.00 82 1011.2
20260510124332 57 156 0.0 0.0 0.00 0.00 0.00 82 1011.2
20260510123822 57 156 0.0 0.0 0.00 0.00 0.00 82 1011.2
20260510123331 57 156 0.0 0.0 0.00 0.00 0.00 82 1011.2
20260510122820 57 155 0.0 0.0 0.00 0.00 0.00 82 1011.2
20260510122328 57 155 0.0 0.0 0.00 0.00 0.00 82 1011.3
20260510121817 57 155 0.0 0.0 0.00 0.00 0.00 82 1011.2
20260510121325 58 155 0.0 0.0 0.00 0.00 0.00 81 1011.2
20260510120817 58 155 0.0 0.0 0.00 0.00 0.00 81 1011.2
20260510120326 58 155 0.0 0.0 0.00 0.00 0.00 81 1011.1
20260510115836 58 155 0.0 0.0 0.00 0.00 0.00 81 1011.2
20260510115326 58 155 0.0 0.0 0.00 0.00 0.00 81 1011.1
20260510114814 58 155 0.0 0.0 0.00 0.00 0.00 81 1011.0
20260510114345 58 155 0.0 0.0 0.00 0.00 0.00 81 1011.0
20260510113833 58 155 0.0 0.0 0.00 0.00 0.00 80 1011.1
20260510113320 58 162 0.0 0.0 0.00 0.00 0.00 80 1011.1
20260510112829 58 162 0.0 0.0 0.00 0.00 0.00 80 1011.0
20260510112337 58 162 0.0 0.0 0.00 0.00 0.00 80 1011.0
20260510111823 58 162 0.0 0.0 0.00 0.00 0.00 80 1011.0
20260510111318 58 162 0.0 0.0 0.00 0.00 0.00 80 1011.0
20260510110827 59 161 0.0 0.0 0.00 0.00 0.00 79 1011.0
20260510110316 59 165 0.0 0.0 0.00 0.00 0.00 79 1011.0
20260510105829 59 165 0.0 0.0 0.00 0.00 0.00 79 1010.9
20260510105317 59 164 0.0 0.0 0.00 0.00 0.00 79 1010.9
20260510104827 59 165 0.0 0.0 0.00 0.00 0.00 79 1010.9
20260510104337 59 165 0.0 0.0 0.00 0.00 0.00 78 1010.8
20260510103825 59 164 0.0 0.0 0.00 0.00 0.00 78 1010.9
20260510103333 59 167 0.0 0.0 0.00 0.00 0.00 78 1010.9
20260510102825 59 167 0.0 0.0 0.00 0.00 0.00 78 1010.9
20260510102357 60 167 0.0 0.0 0.00 0.00 0.00 78 1010.9
20260510101827 60 167 0.0 0.0 0.00 0.00 0.00 77 1010.9
20260510101335 60 167 0.0 0.0 0.00 0.00 0.00 77 1010.9
20260510100825 60 167 0.0 0.0 0.00 0.00 0.00 77 1010.9
20260510100332 60 167 0.0 0.0 0.00 0.00 0.00 77 1010.9
20260510095820 60 162 0.0 0.0 0.00 0.00 0.00 76 1010.9
20260510095329 60 207 0.0 0.0 0.00 0.00 0.00 76 1010.7
20260510094817 61 213 0.0 0.0 0.00 0.00 0.00 76 1010.6
20260510094346 61 213 0.0 0.0 0.00 0.00 0.00 75 1010.6
20260510093817 61 213 0.0 0.0 0.00 0.00 0.00 75 1010.7
20260510093326 61 213 0.0 0.0 0.00 0.00 0.00 75 1010.7
20260510092836 61 213 0.0 0.0 0.00 0.00 0.00 75 1010.7
20260510092324 61 213 0.0 0.0 0.00 0.00 0.00 74 1010.6
20260510091833 62 213 0.0 0.0 0.00 0.00 0.00 74 1010.7
20260510091321 62 181 0.0 0.0 0.00 0.00 0.00 74 1010.6
20260510090829 62 182 0.0 0.0 0.00 0.00 0.00 73 1010.6
20260510090317 62 182 0.0 0.0 0.00 0.00 0.00 73 1010.7
20260510085826 62 184 0.0 0.0 0.00 0.00 0.00 73 1010.6
20260510085318 63 184 0.0 0.0 0.00 0.00 0.00 73 1010.5
20260510084827 63 145 0.0 0.0 0.00 0.00 0.00 72 1010.4
20260510084336 63 148 0.0 0.0 0.00 0.00 0.00 72 1010.5
20260510083826 63 136 0.0 0.0 0.00 0.00 0.00 72 1010.5
20260510083334 63 134 0.0 0.0 0.00 0.00 0.00 72 1010.5
20260510082822 63 130 0.0 0.0 0.00 0.00 0.00 71 1010.4
20260510082333 63 130 0.0 0.0 0.00 0.00 0.00 71 1010.5
20260510081842 63 130 0.0 0.0 0.00 0.00 0.00 71 1010.5
20260510081330 64 129 0.0 0.0 0.00 0.00 0.00 71 1010.5
20260510080824 64 129 0.0 0.0 0.00 0.00 0.00 71 1010.5
20260510080333 64 129 0.0 0.0 0.00 0.00 0.00 70 1010.5
20260510075824 64 128 0.0 0.0 0.00 0.00 0.00 70 1010.5
20260510075332 64 128 0.0 0.0 0.00 0.00 0.00 70 1010.6
20260510074821 64 128 0.0 0.0 0.00 0.00 0.00 70 1010.6
20260510074333 64 128 0.0 0.0 0.00 0.00 0.00 70 1010.5
20260510073823 64 128 0.0 0.0 0.00 0.00 0.00 70 1010.5
20260510073329 64 128 0.0 0.0 0.00 0.00 0.00 70 1010.7
20260510072817 64 128 0.0 0.0 0.00 0.00 0.00 69 1010.7
20260510072345 65 125 0.0 0.0 0.00 0.00 0.00 69 1010.8
20260510071819 65 126 0.0 0.0 0.00 0.00 0.00 69 1010.8
20260510071328 65 126 0.0 0.0 0.00 0.00 0.00 69 1010.8
20260510070818 65 125 0.0 0.0 0.00 0.00 0.00 69 1010.7
20260510070327 65 126 0.0 0.0 0.00 0.00 0.00 69 1010.6
20260510065835 66 127 0.0 0.0 0.00 0.00 0.00 69 1010.7
20260510065324 66 126 0.0 0.0 0.00 0.00 0.00 69 1010.6
20260510064833 66 128 0.0 0.0 0.00 0.00 0.00 68 1010.6
20260510064322 66 129 0.0 0.0 0.00 0.00 0.00 68 1010.6
20260510063831 67 129 0.0 0.0 0.00 0.00 0.00 67 1010.6
20260510063323 67 129 0.0 0.0 0.00 0.00 0.00 67 1010.6
20260510062831 67 129 0.0 0.0 0.00 0.00 0.00 67 1010.6
20260510062342 68 128 0.0 0.0 0.00 0.00 0.00 66 1010.7
20260510061829 68 128 0.0 0.0 0.00 0.00 0.00 66 1010.7
20260510061321 68 129 0.0 0.0 0.00 0.00 0.00 65 1010.7
20260510060829 68 187 0.0 0.0 0.00 0.00 0.00 65 1010.7
20260510060317 69 188 0.0 0.0 0.00 0.00 0.00 65 1010.7
20260510055825 69 188 0.0 0.0 0.00 0.00 0.00 65 1010.7
20260510055316 69 190 0.0 0.0 0.00 0.00 0.00 65 1010.7
20260510054825 70 190 0.0 0.0 0.00 0.00 0.00 64 1010.6
20260510054352 70 190 0.0 0.0 0.00 0.00 0.00 64 1010.5
20260510053823 70 195 0.0 0.0 0.00 0.00 0.00 63 1010.5
20260510053335 70 196 0.0 0.0 0.00 0.00 0.00 63 1010.4
20260510052824 71 196 0.0 0.0 0.00 0.00 0.00 63 1010.5
20260510052333 71 195 0.0 0.0 0.00 0.00 0.00 62 1010.5
20260510051822 71 163 0.0 0.0 0.00 0.00 0.00 63 1010.4
20260510051331 72 163 0.0 0.0 0.00 0.00 0.00 62 1010.5
20260510050819 72 164 0.0 0.0 0.00 0.00 0.00 61 1010.4
20260510050326 72 164 0.0 0.0 0.00 0.00 0.00 60 1010.4
20260510045834 72 164 0.0 0.0 0.00 0.00 0.00 60 1010.3
20260510045327 72 164 0.0 0.0 0.00 0.00 0.00 59 1010.2
20260510044836 73 164 0.0 0.0 0.00 0.00 0.00 58 1010.2
20260510044324 73 164 0.0 0.0 0.00 0.00 0.00 57 1010.2
20260510043832 73 164 0.0 0.0 0.00 0.00 0.00 57 1010.1
20260510043319 74 165 0.0 0.0 0.00 0.00 0.00 56 1010.0
20260510042828 74 167 0.0 0.0 0.00 0.00 0.00 57 1010.0
20260510042336 74 167 0.0 0.0 0.00 0.00 0.00 57 1010.0
20260510041825 75 167 0.0 0.0 0.00 0.00 0.00 57 1010.0
20260510041334 75 167 0.0 0.0 0.00 0.00 0.00 56 1010.0
20260510040845 76 167 0.0 0.0 0.00 0.00 0.00 56 1010.0
20260510040352 76 167 0.0 0.0 0.00 0.00 0.00 55 1009.8
20260510035824 76 167 0.0 0.0 0.00 0.00 0.00 55 1009.6
20260510035332 77 171 0.0 0.0 0.00 0.00 0.00 55 1009.5
20260510034822 77 173 0.0 0.0 0.00 0.00 0.00 54 1009.6
20260510034351 78 165 0.0 0.0 0.00 0.00 0.00 54 1009.6
20260510033822 78 164 0.0 0.0 0.00 0.00 0.00 54 1009.5
20260510033349 78 170 0.0 0.0 0.00 0.00 0.00 54 1009.4
20260510032820 79 170 0.0 0.0 0.00 0.00 0.00 53 1009.3
20260510032348 79 169 0.0 0.0 0.00 0.00 0.00 53 1009.3
20260510031836 80 170 0.0 0.0 0.00 0.00 0.00 52 1009.1
20260510031325 80 168 0.0 0.0 0.00 0.00 0.00 52 1009.0
20260510030833 81 169 0.0 0.0 0.00 0.00 0.00 52 1009.0
20260510030324 81 169 0.0 0.0 0.00 0.00 0.00 51 1009.0
20260510025832 81 168 0.0 0.0 0.00 0.00 0.00 51 1008.9
20260510025319 82 190 0.0 0.0 0.00 0.00 0.00 51 1008.8
20260510024828 82 190 0.0 0.0 0.00 0.00 0.00 50 1008.9
20260510024335 83 190 0.0 0.0 0.00 0.00 0.00 50 1008.9
20260510023824 83 190 0.0 0.0 0.00 0.00 0.00 50 1008.9
20260510023332 84 190 0.0 0.0 0.00 0.00 0.00 50 1008.9
20260510022820 84 190 0.0 0.0 0.00 0.00 0.00 49 1008.8
20260510022328 84 190 0.0 0.0 0.00 0.00 0.00 48 1008.7
20260510021825 85 194 0.0 0.0 0.00 0.00 0.00 48 1008.8
20260510021335 85 175 0.0 0.0 0.00 0.00 0.00 47 1008.7
20260510020823 86 159 0.0 0.0 0.00 0.00 0.00 46 1008.6
20260510020351 86 157 0.0 0.0 0.00 0.00 0.00 46 1008.7
20260510015818 87 248 0.0 0.0 0.00 0.00 0.00 45 1008.8
20260510015326 87 175 0.0 0.0 0.00 0.00 0.00 44 1008.8
20260510014836 88 208 0.0 0.0 0.00 0.00 0.00 43 1008.8
20260510014324 89 210 0.0 0.0 0.00 0.00 0.00 42 1008.8
20260510013833 90 208 0.0 0.0 0.00 0.00 0.00 41 1008.8
20260510013322 91 206 0.0 0.0 0.00 0.00 0.00 40 1008.8
20260510012829 92 222 0.0 0.0 0.00 0.00 0.00 38 1008.8
20260510012321 92 173 0.0 0.0 0.00 0.00 0.00 37 1008.8
20260510011830 93 190 0.0 0.0 0.00 0.00 0.00 35 1008.8
20260510011318 93 219 0.0 0.0 0.00 0.00 0.00 31 1008.8
20260510010827 93 219 0.0 0.0 0.00 0.00 0.00 31 1008.8
20260510010336 93 219 0.0 0.0 0.00 0.00 0.00 29 1008.8
20260510005824 93 219 0.0 0.0 0.00 0.00 0.00 29 1008.8
20260510005355 92 224 0.0 0.0 0.00 0.00 0.00 31 1008.8
20260510004823 92 223 0.0 0.0 0.00 0.00 0.00 32 1008.8
20260510004332 92 225 0.0 0.0 0.00 0.00 0.00 30 1008.8
20260510003825 93 225 0.0 0.0 0.00 0.00 0.00 30 1008.9
20260510003331 93 225 0.0 0.0 0.00 0.00 0.00 29 1008.9
20260510002820 93 225 0.0 0.0 0.00 0.00 0.00 30 1008.9
20260510002327 93 223 0.0 0.0 0.00 0.00 0.00 33 1008.8
20260510001836 92 194 0.0 0.0 0.00 0.00 0.00 32 1008.9
20260510001323 92 194 0.0 0.0 0.00 0.00 0.00 33 1008.9
20260510000831 92 194 0.0 0.0 0.00 0.00 0.00 33 1008.9
20260510000319 92 210 0.0 0.0 0.00 0.00 0.00 34 1009.0
20260509235828 92 210 0.0 0.0 0.00 0.00 0.00 33 1009.0
20260509235320 92 218 0.0 0.0 0.00 0.00 0.00 33 1009.2
20260509234829 92 219 0.0 0.0 0.00 0.00 0.00 32 1009.2
20260509234321 91 286 0.0 0.0 0.00 0.00 0.00 33 1009.2
20260509233830 91 279 0.0 0.0 0.00 0.00 0.00 34 1009.2
20260509233318 91 267 0.0 0.0 0.00 0.00 0.00 35 1009.2
20260509232825 91 267 0.0 0.0 0.00 0.00 0.00 34 1009.1
20260509232353 91 267 0.0 0.0 0.00 0.00 0.00 36 1009.2
20260509231820 91 271 0.0 0.0 0.00 0.00 0.00 35 1009.3
20260509231330 90 269 0.0 0.0 0.00 0.00 0.00 35 1009.2
20260509230839 90 304 0.0 0.0 0.00 0.00 0.00 37 1009.4
20260509230326 90 355 0.0 0.0 0.00 0.00 0.00 36 1009.4
20260509225820 90 233 0.0 0.0 0.00 0.00 0.00 37 1009.5
20260509225327 90 219 0.0 0.0 0.00 0.00 0.00 37 1009.7
20260509224816 90 219 0.0 0.0 0.00 0.00 0.00 35 1009.7
20260509224327 90 211 0.0 0.0 0.00 0.00 0.00 35 1009.6
20260509223837 89 173 0.0 0.0 0.00 0.00 0.00 38 1009.8
20260509223326 89 173 0.0 0.0 0.00 0.00 0.00 38 1009.9
20260509222814 88 172 0.0 0.0 0.00 0.00 0.00 36 1010.0
20260509222346 88 232 0.0 0.0 0.00 0.00 0.00 39 1010.1
20260509221834 88 254 0.0 0.0 0.00 0.00 0.00 39 1010.1
20260509221325 88 226 0.0 0.0 0.00 0.00 0.00 40 1010.2
20260509220832 88 218 0.0 0.0 0.00 0.00 0.00 40 1010.2
20260509220320 87 314 0.0 0.0 0.00 0.00 0.00 41 1010.3
20260509215828 87 331 0.0 0.0 0.00 0.00 0.00 41 1010.3
20260509215356 87 330 0.0 0.0 0.00 0.00 0.00 44 1010.4
20260509214823 87 313 0.0 0.0 0.00 0.00 0.00 43 1010.5